Location: Bakov nad Jizerou
(50.4784°N, 14.9394°E)
Time: 12:42:19
(UTC+00:00)

Cosmos 1536 Rocket - Pass Details

Date: 17 October 2021
Orbit: 605 x 632 km, 82.5° (Epoch: 29 November)

Event Time Altitude Azimuth Distance (km) Brightness Sun altitude
Rises 17:26:07 0° 338° (NNW) 2,883 7.3 -13.8°
Reaches altitude 10° 17:28:44 10° 324° (NW) 1,970 6.7 -14.2°
Maximum altitude 17:32:03 22° 274° (W) 1,345 6.3 -14.7°
Drops below altitude 10° 17:35:22 10° 223° (SW) 1,952 6.7 -15.3°
Sets 17:37:57 0° 208° (SSW) 2,850 7.3 -15.7°
